Greenville, SC

6:55 AM EDT on June 24, 2017 (GMT -0400)
Donaldson Center

Weather History for KGYH - March, 2013

Change the Weather History Date:

Friday, March 22, 2013

  Actual Average (KGMU) Record (KGMU)
Temperature  
Mean Temperature 39 °F -  
Max Temperature 48 °F 63 °F 84 °F (2011)
Min Temperature 30 °F 42 °F 30 °F (2002)
Degree Days  
Heating Degree Days 26    
Moisture  
Dew Point 19 °F    
Average Humidity 48    
Maximum Humidity 70    
Minimum Humidity 27    
Precipitation  
Precipitation 0.00 in - - ()
Sea Level Pressure  
Sea Level Pressure 30.01 in    
Wind  
Wind Speed 3 mph (SSW)    
Max Wind Speed 8 mph    
Max Gust Speed -    
Visibility 10 miles    
Events      
Averages and records for this station are not official NWS values.
T = Trace of Precipitation, MM = Missing Value Source: NWS Daily Summary

Daily Weather History Graph

Daily Weather History Graph

Search for Another Location

Airport or City:

Trip Planner

Search our weather history database for the weather conditions in past years. The results will help you decide how hot, cold, wet, or windy it might be!

Date:

Astronomy

Mar. 22, 2013 Rise Set
Actual Time 7:30 AM EDT 7:43 PM EDT
Civil Twilight 7:04 AM EDT 8:08 PM EDT
Nautical Twilight 6:35 AM EDT 8:37 PM EDT
Astronomical Twilight 6:05 AM EDT 9:07 PM EDT
Moon 3:18 PM EDT (3/22) 4:19 AM EDT (3/22)
Length of Visible Light 13h 03m
Length of Day
12h 12m
Waxing Gibbous, 77% of the Moon is Illuminated
Mar 22
Waxing Gibbous
Mar 27
Full
Apr 3
Last Quarter
Apr 10
New
Apr 18
First Quarter

Hourly Weather History & Observations

Time (EDT) Temp. Windchill Dew Point Humidity Pressure Visibility Wind Dir Wind Speed Gust Speed Precip Events Conditions
12:15 AM 35.6 °F 32.8 °F 12.2 °F 38% 29.96 in 10.0 mi East 3.5 mph - N/A   Clear
12:35 AM 35.6 °F 32.8 °F 12.2 °F 38% 29.96 in 10.0 mi ENE 3.5 mph - N/A   Clear
12:55 AM 35.6 °F - 14.0 °F 41% 29.96 in 10.0 mi Calm Calm - N/A   Clear
1:15 AM 35.6 °F 32.8 °F 14.0 °F 41% 29.97 in 10.0 mi NE 3.5 mph - N/A   Clear
1:35 AM 33.8 °F - 14.0 °F 44% 29.97 in 10.0 mi Calm Calm - N/A   Clear
1:55 AM 33.8 °F 30.8 °F 15.8 °F 48% 29.97 in 10.0 mi East 3.5 mph - N/A   Clear
2:15 AM 32.0 °F 28.7 °F 15.8 °F 51% 29.97 in 10.0 mi East 3.5 mph - N/A   Clear
2:55 AM 32.0 °F - 14.0 °F 48% 29.98 in 10.0 mi Calm Calm - N/A   Clear
3:15 AM 33.8 °F - 14.0 °F 44% 29.99 in 10.0 mi Calm Calm - N/A   Clear
3:35 AM 32.0 °F - 17.6 °F 55% 30.00 in 10.0 mi Calm Calm - N/A   Clear
3:55 AM 32.0 °F - 17.6 °F 55% 30.00 in 10.0 mi Calm Calm - N/A   Clear
4:15 AM 30.2 °F - 19.4 °F 64% 30.00 in 10.0 mi Calm Calm - N/A   Clear
4:35 AM 30.2 °F - 19.4 °F 64% 30.00 in 10.0 mi Calm Calm - N/A   Clear
4:55 AM 30.2 °F - 21.2 °F 69% 30.00 in 10.0 mi Calm Calm - N/A   Clear
5:15 AM 32.0 °F - 15.8 °F 51% 30.01 in 10.0 mi Calm Calm - N/A   Clear
5:35 AM 32.0 °F - 12.2 °F 44% 30.01 in 10.0 mi Calm Calm - N/A   Clear
5:55 AM 32.0 °F - 12.2 °F 44% 30.02 in 10.0 mi Calm Calm - N/A   Clear
6:15 AM 32.0 °F 28.7 °F 14.0 °F 48% 30.03 in 10.0 mi SSE 3.5 mph - N/A   Clear
6:35 AM 32.0 °F 28.7 °F 14.0 °F 48% 30.03 in 10.0 mi SE 3.5 mph - N/A   Clear
6:47 AM 32.0 °F 28.7 °F 14.0 °F 48% 30.04 in 10.0 mi SE 3.5 mph - N/A   Clear
7:47 AM 32.0 °F 28.7 °F 15.8 °F 51% 30.05 in 10.0 mi SE 3.5 mph - N/A   Mostly Cloudy
8:47 AM 32.0 °F 27.5 °F 15.8 °F 51% 30.06 in 10.0 mi ESE 4.6 mph - N/A   Overcast
9:47 AM 33.8 °F 29.6 °F 15.8 °F 48% 30.07 in 10.0 mi SE 4.6 mph - N/A   Overcast
10:47 AM 37.4 °F 33.8 °F 15.8 °F 41% 30.08 in 10.0 mi South 4.6 mph - N/A   Overcast
11:47 AM 39.2 °F 35.9 °F 15.8 °F 39% 30.06 in 10.0 mi South 4.6 mph - N/A   Overcast
12:47 PM 42.8 °F 41.1 °F 15.8 °F 34% 30.04 in 10.0 mi SSW 3.5 mph - N/A   Clear
1:47 PM 46.4 °F 42.4 °F 15.8 °F 29% 30.05 in 10.0 mi SW 8.1 mph - N/A   Overcast
2:47 PM 48.2 °F - 17.6 °F 30% 30.03 in 10.0 mi SW 8.1 mph - N/A   Mostly Cloudy
3:47 PM 48.2 °F - 15.8 °F 27% 30.01 in 10.0 mi West 8.1 mph - N/A   Overcast
4:47 PM 48.2 °F - 17.6 °F 30% 29.99 in 10.0 mi West 8.1 mph - N/A   Mostly Cloudy
5:47 PM 48.2 °F - 19.4 °F 32% 29.99 in 10.0 mi WSW 6.9 mph - N/A   Overcast
6:47 PM 48.2 °F - 21.2 °F 34% 29.99 in 10.0 mi WSW 3.5 mph - N/A   Overcast
7:47 PM 46.4 °F 45.2 °F 23.0 °F 40% 30.00 in 10.0 mi WSW 3.5 mph - N/A   Overcast
8:47 PM 46.4 °F - 24.8 °F 43% 30.01 in 10.0 mi Calm Calm - N/A   Overcast
9:15 PM 44.6 °F - 26.6 °F 49% 30.01 in 10.0 mi Calm Calm - N/A   Overcast
9:35 PM 44.6 °F - 28.4 °F 53% 30.03 in 10.0 mi Calm Calm - N/A   Overcast
9:55 PM 44.6 °F - 26.6 °F 49% 30.03 in 10.0 mi Calm Calm - N/A   Overcast
10:15 PM 42.8 °F - 28.4 °F 57% 30.03 in 10.0 mi Calm Calm - N/A   Overcast
10:35 PM 41.0 °F 39.0 °F 28.4 °F 61% 30.03 in 10.0 mi WSW 3.5 mph - N/A   Mostly Cloudy
10:55 PM 41.0 °F 39.0 °F 30.2 °F 65% 30.03 in 10.0 mi WSW 3.5 mph - N/A   Mostly Cloudy
11:15 PM 41.0 °F 39.0 °F 30.2 °F 65% 30.03 in 10.0 mi WSW 3.5 mph - N/A   Overcast
11:35 PM 41.0 °F 38.0 °F 30.2 °F 65% 30.03 in 10.0 mi WSW 4.6 mph - N/A   Mostly Cloudy
11:55 PM 39.2 °F 35.9 °F 30.2 °F 70% 30.03 in 10.0 mi WSW 4.6 mph - N/A   Scattered Clouds